Simultaneous Nadir Overpasses (SNOs) Predictions

Prediction of SNOs between FY3D and NOAA-19 Satellite Orbit:

Table of predicted SNOs for the next 14.0 days since TLE Epoch: 9/2/2022
Index Date (FY3D) Time (FY3D) Lat,Lon (FY3D) SZA (FY3D ) Date (NOAA-19) Time (NOAA-19) Lat,Lon (NOAA-19) SZA (NOAA-19 ) Distance(km) Time Diff (sec)
1 09/15/2022 21:23:29 77.05,-154.79 74.54 09/15/2022 21:22:18 77.03,-156.45 74.63 41.36 71
2 09/15/2022 22:14:19 -77.22, 11.77 105.25 09/15/2022 22:13:15 -77.25, 11.78 105.21 2.66 64
3 09/15/2022 23:05:05 77.25, 178.95 74.80 09/15/2022 23:04:13 77.23, 178.96 74.79 2.43 52
4 09/15/2022 23:55:51 -77.25, -13.74 105.19 09/15/2022 23:55:15 -77.24, -13.76 105.19 1.85 36
5 09/16/2022 00:46:36 77.24, 153.63 74.82 09/16/2022 00:46:12 77.26, 153.62 74.84 2.51 24
6 09/16/2022 01:37:22 -77.24, -39.07 105.17 09/16/2022 01:37:14 -77.27, -39.11 105.14 3.24 8
7 09/16/2022 02:28:08 77.27, 128.12 74.88 09/16/2022 02:28:12 77.25, 128.08 74.86 2.18 4
8 09/16/2022 03:18:54 -77.27, -64.58 105.11 09/16/2022 03:19:14 -77.26, -64.66 105.12 2.39 20
9 09/16/2022 04:09:40 77.30, 102.61 74.94 09/16/2022 04:10:11 77.28, 102.73 74.91 3.44 31
10 09/16/2022 05:00:26 -77.30, -90.09 105.05 09/16/2022 05:01:13 -77.29, -90.01 105.08 2.39 47
11 09/16/2022 05:51:11 77.29, 77.28 74.95 09/16/2022 05:52:11 77.27, 77.19 74.93 2.73 60
12 09/16/2022 06:41:58 -77.33,-115.60 104.99 09/16/2022 06:43:13 -77.28,-115.55 105.06 5.81 75



Historial Predications of SNOs between FY3D and NOAA-19
